sat.trackr.live / text

‹ back to catalog

STARLINK-2093

NORAD 47374 · 2021-005AB

PAYLOAD ACTIVE UNKNOWN

§ Identity

Operator
Country
US
Launch date
2021-01-20
Launch site
AFETR
Launch vehicle
Mass (kg)
RCS (m²)

Purposes: comms

External: N2YO · Heavens-Above · Gunter

§ Orbital elements

Epoch: 2026-05-25T03:46:53.412096Z

Period
90.86 min
Inclination
53.0453°
Eccentricity
0.0003980
Mean motion
15.84796638 rev/d
Perigee alt
314.2 km
Apogee alt
319.6 km
Semi-major
6,695.0 km
B*
5.8023e-4
RAAN
24.9411°
Arg perigee
110.3662°
Mean anomaly
249.7788°
Rev number
29,531

§ Raw data

STARLINK-20931 47374U 21005AB  26145.15756264  .00139274  00000+0  58023-3 0  99932 47374  53.0453  24.9411 0003980 110.3662 249.7788 15.84796638295319

JSON: /api/v1/satellites/47374 · /tle

For live sub-satellite position, see the globe view (requires WebGL).

§ Visibility from observer

Set your observer location to see the next 7 days of passes ≥ 10°. The values pass through the URL so the page stays shareable.

No JS? Fill the form by hand. The geolocation button needs JavaScript.